Theta_e
349 348 347 343 339 340 342 339 335 339 338 335 336 337 337 336 338 338 338 334 332 334 332 329 328 329 328 326 325 323 321 319 313 315 319 320 322 324 324 325 325 322 320
344 342 345 343 341 341 346 340 338 341 337 335 335 335 336 334 336 334 333 331 331 331 330 330 328 328 327 328 325 323 320 321 318 314 316 318 317 320 324 323 323 321 320
347 345 347 347 348 346 346 340 338 336 337 336 334 333 332 332 333 333 333 332 329 331 331 331 329 328 326 325 323 321 319 318 317 314 312 314 317 318 320 322 319 317 318
333 348 349 348 347 344 339 338 339 335 336 334 334 332 332 332 333 333 332 330 330 331 332 331 330 327 326 323 320 318 316 316 314 312 311 311 314 317 318 314 313 314 313
336 343 348 347 341 335 334 334 334 333 335 335 333 331 331 331 331 331 332 331 331 331 332 331 329 327 318 318 315 315 314 312 311 309 309 310 311 313 312 313 310 312 313
334 333 338 340 337 332 332 332 332 332 332 332 331 331 329 330 318 318 328 330 331 331 330 330 330 321 318 313 312 312 313 312 310 309 309 308 310 312 312 310 308 308 307
332 333 336 338 334 333 331 329 328 328 329 332 332 332 330 331 309 312 317 331 331 331 331 329 327 324 322 320 312 310 310 308 308 309 309 310 311 313 311 309 308 309 307
327 329 330 332 335 334 333 332 327 327 331 332 332 333 332 332 307 308 313 332 331 331 329 329 327 325 323 317 317 315 314 315 315 311 308 310 315 315 313 309 307 307 309
325 325 327 327 330 334 332 334 332 329 329 334 334 333 333 330 304 306 319 331 328 327 327 327 326 323 310 305 313 312 311 313 313 308 306 304 301 301 304 308 305 304 304
325 325 322 323 328 329 333 331 331 331 331 332 334 334 327 322 301 304 319 324 325 324 326 325 313 316 306 302 311 311 308 310 313 311 310 309 309 311 305 306 307 305 305
323 326 322 320 322 328 330 331 331 330 330 331 331 333 328 316 306 301 305 323 323 323 321 321 305 300 298 298 297 308 308 304 306 306 306 307 308 310 312 312 309 308 306
323 322 318 315 317 319 322 333 331 327 328 328 328 329 323 314 303 299 301 299 306 314 314 315 304 299 299 298 297 299 298 299 303 304 305 305 306 308 312 314 311 311 313
320 319 316 313 312 313 312 309 310 309 316 326 325 315 310 308 305 298 299 300 299 310 312 304 298 297 297 298 296 297 296 302 305 305 304 305 308 312 312 312 311 312 311
318 317 316 315 313 310 309 306 304 305 304 301 307 314 311 307 306 302 304 301 300 302 306 311 306 302 299 302 302 305 306 307 307 308 308 308 310 310 308 308 305 304 303
318 314 314 313 311 306 302 302 301 301 305 302 301 299 301 302 297 299 304 307 308 298 299 306 306 307 308 310 312 314 313 312 312 310 309 307 306 306 305 306 304 302 300
315 314 314 311 312 308 305 302 294 296 297 294 295 299 297 294 292 293 293 293 293 292 300 303 304 306 307 308 311 311 310 307 307 306 305 304 303 302 301 302 302 301 299
314 315 313 310 310 307 307 307 302 299 296 295 295 295 295 293 293 293 292 292 291 292 298 303 306 308 310 310 308 306 304 305 305 304 302 301 300 299 297 298 298 298 298
317 305 312 312 310 310 309 307 304 304 302 301 296 296 294 295 294 292 292 292 298 293 303 305 307 306 306 304 304 303 303 302 301 300 299 298 298 297 296 296 297 296 297
315 313 310 311 310 308 308 305 306 307 306 304 302 295 294 294 293 292 292 298 304 304 303 303 303 303 302 302 301 301 300 298 298 298 296 296 296 296 295 296 296 291 293
314 304 305 306 305 306 305 305 304 305 307 306 304 301 300 295 301 300 299 303 301 301 302 301 301 300 300 299 298 298 297 297 296 296 296 296 297 296 296 296 296 295 296
311 305 299 308 308 307 308 306 306 306 306 304 301 298 290 300 302 302 301 301 301 300 299 299 298 298 298 297 297 296 295 296 296 296 296 296 297 296 297 297 296 296 296
307 306 306 306 308 307 306 306 305 304 304 304 303 300 287 300 302 301 301 301 300 299 299 299 298 298 298 297 296 295 295 295 295 296 296 296 297 297 297 297 296 296 296
306 305 305 305 304 299 305 306 305 305 303 304 304 304 303 303 301 300 299 299 299 300 301 300 299 298 298 298 297 297 295 295 295 296 295 295 296 297 297 297 298 297 297
304 304 303 304 305 303 303 304 303 298 303 304 304 304 304 303 302 301 300 301 302 304 302 302 301 299 298 296 295 294 295 295 295 294 294 294 296 295 297 298 299 301 299
305 304 303 303 302 302 303 303 303 303 303 303 303 303 303 304 303 301 301 303 304 305 304 305 301 300 298 294 293 292 290 287 288 288 290 291 292 294 297 300 301 300 300
303 302 303 303 303 303 302 302 302 302 301 301 302 302 303 303 303 304 304 304 304 304 304 303 301 300 298 293 291 288 287 286 287 286 289 291 292 295 299 303 302 300 300
Wind_Speed
24 20 18 16 14 9 10 13 15 11 16 16 13 10 9 11 7 6 5 7 5 5 2 4 4 4 2 3 3 4 3 3 4 6 3 5 5 6 6 4 3 5 5
14 17 7 14 15 13 13 15 17 13 16 17 17 14 10 9 8 8 7 7 6 6 5 5 5 1 1 4 2 4 3 4 3 6 5 3 6 8 6 4 3 3 5
18 24 26 22 16 16 15 14 13 14 15 15 15 18 14 10 10 9 7 7 8 7 6 6 4 3 2 2 2 4 3 3 4 4 6 5 3 4 4 5 5 4 6
22 15 19 18 16 12 14 17 14 15 14 16 18 17 20 18 12 12 12 8 8 7 6 4 3 4 4 1 3 4 4 4 4 5 5 4 3 4 3 4 6 4 5
14 2 19 15 16 15 15 13 14 17 17 15 16 16 15 16 15 16 13 10 9 7 7 6 6 3 4 5 2 4 2 4 4 5 5 4 4 5 4 3 4 5 7
14 18 2 7 14 17 16 12 15 14 14 16 14 12 14 13 18 22 19 13 10 8 7 6 5 8 8 7 9 10 6 4 5 4 5 5 6 4 3 3 4 5 6
14 12 8 15 14 14 15 15 15 13 12 12 12 12 14 14 12 17 15 11 12 9 7 6 5 3 2 5 11 10 6 11 12 6 6 6 8 6 2 4 4 5 6
11 11 8 3 10 12 15 16 15 13 13 13 13 15 13 12 14 16 14 10 7 8 7 7 5 3 2 2 4 3 5 6 6 7 8 10 9 5 4 3 5 8 8
10 11 10 10 4 11 11 13 12 13 13 13 15 15 15 10 12 16 15 9 8 6 5 6 6 4 5 9 5 5 6 6 8 9 10 9 9 10 7 3 5 6 7
6 7 9 9 8 2 11 11 10 9 11 11 14 15 14 10 5 14 12 8 7 6 6 5 10 8 5 9 5 4 6 5 5 6 8 10 8 9 10 8 6 6 6
4 7 9 9 8 9 4 9 12 11 12 12 12 13 13 14 10 10 5 6 6 6 4 4 6 11 8 3 2 4 6 4 6 7 8 7 7 8 8 8 10 8 6
5 7 6 8 7 6 9 4 10 9 12 10 13 9 10 11 14 10 10 6 3 3 2 2 6 6 5 8 7 11 12 7 6 7 6 6 7 8 8 2 7 8 8
3 5 4 7 7 9 10 10 6 9 6 7 8 10 8 7 7 12 10 8 4 2 1 4 2 2 6 8 14 15 8 5 7 7 7 7 7 6 3 4 3 3 3
4 4 5 5 8 7 8 8 8 8 10 11 8 7 10 9 8 6 4 3 2 2 2 1 3 7 11 14 9 8 7 7 8 8 5 4 5 5 5 2 3 2 3
6 4 4 5 7 8 8 5 7 5 4 9 7 12 9 10 5 9 6 3 4 4 3 4 5 5 5 6 6 6 6 5 4 3 3 5 7 7 7 5 5 5 7
6 5 4 4 4 5 5 7 14 12 6 16 13 5 14 8 8 12 10 4 5 4 2 4 5 5 6 7 6 3 3 4 5 5 6 7 7 5 6 6 5 6 8
10 8 7 7 5 4 4 5 6 5 10 13 14 16 14 6 9 7 4 7 7 7 3 5 4 5 5 4 5 5 5 5 7 6 7 6 7 7 6 7 7 7 8
9 10 6 6 4 4 5 6 5 4 5 5 3 2 9 6 3 5 8 6 5 7 4 1 3 6 6 6 6 6 5 5 7 7 6 7 7 8 6 7 7 8 7
6 7 5 4 5 3 4 4 4 5 6 7 5 1 3 8 10 7 10 6 3 5 6 6 6 6 7 6 6 5 7 7 7 7 8 7 8 7 7 7 7 8 7
8 12 8 6 5 6 4 4 4 3 7 6 5 6 5 4 4 7 4 2 4 3 5 5 5 5 7 7 8 7 7 7 7 7 6 7 7 6 7 7 7 7 7
3 7 7 10 9 6 5 7 4 3 6 7 6 3 4 3 2 5 5 4 5 5 5 5 6 7 7 7 7 7 7 7 8 8 6 8 6 6 6 7 7 7 7
0 3 4 5 8 7 6 7 4 4 6 7 5 3 2 2 7 5 4 3 4 1 4 5 6 7 7 7 7 7 7 9 8 7 7 8 6 7 7 8 7 7 8
3 2 5 9 8 5 5 6 5 6 7 6 4 6 5 7 5 4 2 2 3 3 4 5 6 6 6 6 6 7 8 8 7 6 9 8 7 8 7 8 8 8 8
6 7 6 6 3 7 7 6 5 8 6 6 7 7 5 5 4 3 4 4 1 2 3 5 5 8 8 6 5 6 7 7 7 10 13 10 9 9 9 9 10 9 8
5 6 5 6 7 6 5 6 6 7 7 7 6 5 5 5 4 4 4 1 3 3 6 4 5 10 10 12 11 13 13 14 14 12 8 11 12 13 12 9 10 7 7
5 6 6 5 5 6 6 7 7 8 8 8 7 7 6 5 6 4 5 4 2 4 5 4 9 13 14 11 13 16 17 16 12 10 8 8 8 9 9 11 10 5 4
Wind_Direction
180 182 178 186 202 194 142 174 166 187 149 156 164 169 173 163 168 173 204 156 188 204 155 197 196 201 265 338 338 304 316 356 332 308 306 299 306 299 291 273 323 312 326
166 167 188 201 197 200 162 187 170 162 147 161 171 162 176 175 173 174 203 169 181 188 208 242 247 188 344 285 286 319 321 276 266 295 292 308 305 282 281 282 240 346 319
174 153 182 199 192 193 176 169 171 154 155 176 181 159 161 180 186 183 186 184 186 187 204 203 229 241 242 270 281 275 293 320 289 288 297 284 281 310 312 9 9 7 340
334 194 156 184 184 159 168 163 167 172 175 185 179 173 166 172 182 193 194 188 178 189 189 192 223 258 259 2 327 317 321 341 303 283 291 306 315 320 11 5 345 346 340
340 173 166 150 141 151 157 173 169 171 185 192 208 189 178 177 178 185 188 183 179 175 179 179 211 203 173 213 234 270 328 284 312 305 304 312 314 342 344 346 333 327 318
347 7 175 61 151 159 160 176 181 191 203 201 216 191 188 199 190 175 175 178 169 176 182 190 207 187 215 198 208 235 226 249 259 266 287 301 304 317 322 0 322 331 322
0 13 46 167 177 157 165 179 187 200 199 210 215 204 211 209 175 178 173 171 167 175 176 178 210 206 191 206 221 235 259 252 237 249 275 277 291 287 2 308 313 313 301
349 357 10 39 188 173 179 187 192 198 206 215 213 217 212 205 183 183 168 158 166 154 173 186 192 214 240 287 299 290 282 270 242 222 229 249 264 289 232 228 275 285 283
13 352 359 346 354 179 193 198 197 202 215 212 215 212 209 192 170 166 163 158 156 165 184 198 194 207 159 175 229 247 266 279 283 262 255 272 281 275 248 281 283 287 292
6 14 346 347 331 279 198 196 206 192 212 219 211 204 199 148 150 165 164 161 164 179 191 199 209 209 209 185 222 249 271 277 309 340 319 306 296 281 239 212 237 247 275
12 38 5 353 334 4 285 190 201 205 204 222 219 202 154 148 161 154 111 172 181 181 184 184 87 78 105 171 296 275 267 332 301 292 281 284 286 276 260 221 212 219 225
18 53 41 24 18 5 7 231 213 200 211 209 210 173 142 141 141 135 114 72 48 85 79 45 119 144 194 226 214 230 242 251 261 261 270 277 278 274 272 313 204 229 242
66 92 88 79 48 46 51 34 39 39 352 204 204 136 130 137 141 133 136 129 124 121 358 64 42 293 266 244 241 249 231 219 238 244 242 240 249 276 339 323 333 313 303
157 107 78 92 82 57 71 62 45 53 61 37 7 131 139 144 133 134 136 126 75 260 288 300 295 268 266 260 283 253 223 227 234 245 247 249 259 289 286 316 302 284 282
212 138 156 100 92 75 47 45 95 30 71 98 42 69 42 53 356 78 112 162 134 101 285 249 253 256 266 270 257 237 211 236 248 237 268 309 303 288 282 288 272 268 255
193 167 150 140 147 107 91 81 27 66 62 107 101 79 88 94 55 41 55 79 120 123 207 254 274 273 268 266 269 313 14 1 339 325 301 297 288 288 291 289 251 250 248
207 170 160 154 138 119 140 130 126 69 59 41 68 79 83 95 64 15 333 273 219 169 232 227 251 271 281 336 356 356 338 323 310 293 289 287 287 285 284 279 269 262 257
212 190 171 144 130 161 161 141 142 132 103 100 65 124 123 135 195 221 251 302 260 236 238 214 323 339 355 341 317 309 292 287 288 284 281 280 276 270 267 263 261 262 263
196 148 121 159 140 123 150 157 163 150 145 144 142 101 259 183 220 226 229 229 257 20 9 15 3 329 302 299 295 286 285 284 273 277 272 270 263 256 261 259 260 260 260
141 134 137 136 136 179 194 175 134 145 129 153 136 143 154 191 191 191 213 108 43 360 9 346 316 305 292 286 282 279 275 278 276 265 260 257 254 251 258 262 257 259 255
167 156 170 162 192 161 149 124 135 152 112 90 93 99 130 190 152 73 43 34 49 17 346 314 290 279 274 276 276 274 272 277 268 268 266 260 255 255 253 256 256 256 257
113 139 268 162 145 133 116 118 102 100 91 111 110 117 118 24 66 61 58 23 54 308 268 271 275 268 273 274 274 278 283 274 271 268 272 262 260 255 254 251 248 247 245
14 86 103 76 78 101 117 113 140 98 97 89 128 102 108 89 81 100 136 195 222 243 265 268 281 292 281 281 291 276 274 274 277 283 268 269 264 259 249 249 243 236 230
92 84 62 92 77 81 74 85 81 83 121 107 90 104 106 111 140 179 200 212 255 322 291 290 313 315 324 336 306 296 285 289 292 276 274 269 263 252 249 248 252 231 226
75 86 91 88 94 112 135 113 101 93 84 83 79 88 104 146 159 189 216 163 84 33 345 305 343 353 346 339 320 316 314 298 273 263 260 250 249 252 254 253 247 226 220
54 77 86 92 105 111 106 103 102 101 93 90 79 73 56 58 56 77 62 25 64 51 359 11 16 3 356 342 326 325 304 284 275 255 242 236 238 246 247 252 235 208 207